Location: Houston
(29.7630°N, 95.3630°W)
Time: 11:04:16
(UTC-06:00)

Amateur Radio Satellites - All Passes

Search period start: 23 November 2014 10:34
Search period end: 24 November 2014 10:34
Location: Houston, 29.7630°N, 95.3630°W

Satellite Date Start Highest point End Downlink Frequencies (MHz)
Time Altitude Azimuth
CUBEBUG 2 23 Nov 10:39:48 10:43:56 56° 284° (WNW) 10:48:12 437.445
Oscar 11 23 Nov 10:44:20 10:48:01 28° 287° (WNW) 10:51:42 145.826/435.025
CINEMA 3 23 Nov 10:45:44 10:49:20 28° 287° (WNW) 10:53:03 145.822/145.860
UWE-3 23 Nov 10:46:27 10:50:35 54° 284° (WNW) 10:54:49 435.000/436.395/437.385
POLYITAN 1 23 Nov 10:50:12 10:54:26 63° 259° (W) 10:58:41 437.675
QB50P2 23 Nov 10:53:31 10:57:43 57° 259° (W) 11:01:55 145.880/145.840
TIGRISAT 23 Nov 10:54:48 10:58:47 37° 261° (W) 11:02:45 435.000
DUCHIFAT 1 23 Nov 11:01:42 11:05:47 45° 260° (W) 11:09:53 145.980
DX 1 23 Nov 11:03:42 11:06:45 19° 290° (WNW) 11:09:48 434.975-435.025
ESTCUBE 1 23 Nov 11:06:56 11:11:13 40° 99° (E) 11:15:27 437.505/2401.250
UNISAT 6 23 Nov 11:07:09 11:10:46 26° 262° (W) 11:14:23 437.425
VELOX 1 23 Nov 11:19:12 11:23:25 45° 286° (WNW) 11:27:36 145.980
NANOSAT C BR1 23 Nov 11:21:12 11:24:46 26° 263° (W) 11:28:21 145.865
ZACube-1 23 Nov 11:29:19 11:32:23 20° 289° (WNW) 11:35:29 437.345
QB50P1 23 Nov 11:31:09 11:34:17 20° 264° (W) 11:37:26 145.935-145.965
HUMSAT D 23 Nov 11:34:44 11:38:16 27° 287° (WNW) 11:41:50 437.325/437.525
ANTELSAT 23 Nov 11:37:51 11:39:21 12° 266° (W) 11:40:50 437.575/2403.000
50 SAT 23 Nov 11:43:46 11:47:06 25° 287° (WNW) 11:50:27 437.505
AISAT 23 Nov 11:44:13 11:47:39 23° 289° (WNW) 11:51:05 437.250
Oscar 19 23 Nov 11:52:20 11:53:12 10° 65° (ENE) 11:54:04 437.125/150
BUGSAT 1 23 Nov 11:59:25 12:00:46 11° 266° (W) 12:02:07 437.445
TISAT 1 23 Nov 12:07:17 12:11:19 45° 100° (E) 12:15:19 437.305
SPROUT 23 Nov 12:07:47 12:11:47 39° 99° (E) 12:15:47 437.525
CUBEBUG 1 23 Nov 12:07:54 12:11:52 35° 287° (WNW) 12:15:48 437.445
AUBIESAT-1 23 Nov 12:26:02 12:28:13 13° 97° (E) 12:30:22 437.475
M-CUBED/EXP-1 PRIME 23 Nov 12:28:28 12:31:24 16° 98° (E) 12:34:16 437.505
ITAMSAT 1 23 Nov 12:37:46 12:39:37 12° 65° (ENE) 12:41:28 435.822/435.867
ESTCUBE 1 23 Nov 12:45:20 12:47:41 14° 292° (WNW) 12:50:01 437.505/2401.250
YUBILEINY 23 Nov 12:48:39 12:53:41 16° 70° (ENE) 12:58:40 435.215
CUSAT 1 23 Nov 13:04:37 13:07:36 36° 97° (E) 13:10:09 437.405
ITUPSAT 1 23 Nov 13:08:51 13:12:59 28° 98° (E) 13:17:05 437.325
DANDE 23 Nov 13:17:21 13:20:38 47° 97° (E) 13:23:21 436.750
SWISSCUBE 23 Nov 13:20:37 13:25:11 44° 100° (E) 13:29:43 437.505
VERMONT LUNAR 23 Nov 13:24:12 13:25:08 11° 138° (SE) 13:26:05 437.305
Oscar 19 23 Nov 13:26:49 13:31:53 69° 258° (WSW) 13:36:59 437.125/150
SPROUT 23 Nov 13:45:37 13:47:29 13° 291° (WNW) 13:49:20 437.525
TISAT 1 23 Nov 13:45:45 13:46:42 11° 292° (WNW) 13:47:38 437.305
SO-50 23 Nov 13:51:25 13:56:17 65° 62° (ENE) 14:01:08 436.795
BEESAT 23 Nov 13:52:09 13:56:58 86° 283° (WNW) 14:01:44 436.000
AUBIESAT-1 23 Nov 13:58:37 14:03:23 53° 290° (WNW) 14:08:02 437.475
M-CUBED/EXP-1 PRIME 23 Nov 14:01:51 14:06:32 44° 291° (WNW) 14:11:06 437.505
ITAMSAT 1 23 Nov 14:13:20 14:18:30 64° 258° (WSW) 14:23:41 435.822/435.867
Gurwin Techsat 1B 23 Nov 14:28:38 14:33:56 85° 257° (WSW) 14:39:17 435.225
STARS 23 Nov 14:30:56 14:34:44 29° 98° (E) 14:38:32 437.465
PHONESAT 2.4 23 Nov 14:37:09 14:40:31 34° 143° (SE) 14:43:55 2401.200-2431.200
YUBILEINY 23 Nov 14:42:33 14:51:15 78° 267° (W) 14:59:53 435.215
ITUPSAT 1 23 Nov 14:47:00 14:50:39 22° 290° (WNW) 14:54:18 437.325
RS-15 23 Nov 14:48:26 14:56:17 23° 103° (ESE) 15:03:59 29.354- 29.394
VERMONT LUNAR 23 Nov 14:59:36 15:03:13 85° 149° (SSE) 15:06:51 437.305
SWISSCUBE 23 Nov 15:00:01 15:02:37 15° 292° (WNW) 15:05:12 437.505
KKS-1 23 Nov 15:05:05 15:09:29 65° 284° (WNW) 15:13:51 437.445
HORYU 2 23 Nov 15:12:54 15:17:16 60° 259° (W) 15:21:39 437.375
AO-7 23 Nov 15:24:01 15:32:04 58° 69° (ENE) 15:40:09 29.400- 29.500
SO-50 23 Nov 15:35:42 15:36:15 10° 254° (WSW) 15:36:49 436.795
MaSat-1 23 Nov 16:04:57 16:07:40 25° 293° (WNW) 16:10:11 437.345
STARS 23 Nov 16:08:00 16:10:58 18° 290° (WNW) 16:13:57 437.465
PHONESAT 2.4 23 Nov 16:15:49 16:19:18 37° 337° (NNW) 16:22:47 2401.200-2431.200
JAS-2 23 Nov 16:30:46 16:37:51 54° 72° (ENE) 16:45:25 435.910
Cubesat XI-IV 23 Nov 16:35:17 16:36:26 11° 64° (ENE) 16:37:35 437.490
VERMONT LUNAR 23 Nov 16:39:06 16:42:00 22° 344° (NNW) 16:44:55 437.305
O/OREOS (USA 219) 23 Nov 16:54:13 16:58:42 79° 72° (ENE) 17:03:10 437.305
RS-15 23 Nov 16:56:29 17:07:30 73° 298° (WNW) 17:18:25 29.354- 29.394
CUTE-I 23 Nov 17:13:43 17:18:14 28° 70° (ENE) 17:22:45 437.470
AO-7 23 Nov 17:18:47 17:25:05 24° 263° (W) 17:31:26 29.400- 29.500
MOZHAYETS 4 23 Nov 17:26:21 17:31:00 78° 283° (WNW) 17:35:38
PHONESAT 2.4 23 Nov 17:56:20 17:58:46 16° 353° (N) 18:01:12 2401.200-2431.200
PRISM 23 Nov 18:01:22 18:05:22 40° 99° (E) 18:09:18 437.425
Cubesat XI-IV 23 Nov 18:10:28 18:15:49 74° 258° (WSW) 18:21:12 437.490
JAS-2 23 Nov 18:17:16 18:23:03 25° 267° (W) 18:29:11 435.910
VERMONT LUNAR 23 Nov 18:19:13 18:21:21 15° 1° (N) 18:23:28 437.305
STRAND 1 23 Nov 18:27:00 18:31:16 27° 97° (E) 18:35:31 437.568
GONETS M04 23 Nov 18:37:46 18:43:37 19° 72° (ENE) 18:49:24
HO-68 23 Nov 18:49:44 18:51:31 11° 58° (ENE) 18:53:17 435.675
CUTE-I 23 Nov 18:53:39 18:58:09 27° 263° (W) 19:02:40 437.470
CUBESAT XI-V 23 Nov 19:00:06 19:04:46 70° 101° (ESE) 19:09:22 437.345
RS-15 23 Nov 19:15:36 19:22:01 17° 322° (NW) 19:28:30 29.354- 29.394
PCSat 23 Nov 19:19:44 19:24:27 32° 108° (ESE) 19:29:13 145.827
CUTE 1.7 & AOD 2 23 Nov 19:32:41 19:33:06 10° 68° (ENE) 19:33:30 437.475
PHONESAT 2.4 23 Nov 19:35:50 19:38:29 18° 11° (N) 19:41:08 2401.200-2431.200
PRISM 23 Nov 19:38:46 19:40:30 12° 292° (WNW) 19:42:13 437.425
BEESAT 3 23 Nov 19:41:16 19:44:07 19° 109° (ESE) 19:47:00 437.485
GOMX 1 23 Nov 19:42:04 19:43:37 11° 69° (ENE) 19:45:08 467.674
BEESAT 2 23 Nov 19:54:02 19:57:20 24° 110° (ESE) 20:00:41 435.950
BRITE-PL 23 Nov 19:54:37 19:58:48 25° 73° (ENE) 20:02:46 437.365/2234.400
VERMONT LUNAR 23 Nov 19:57:35 20:00:39 25° 18° (NNE) 20:03:41 437.305
SEEDS 23 Nov 20:05:53 20:09:15 24° 72° (ENE) 20:12:37 437.485
STRAND 1 23 Nov 20:06:08 20:10:18 26° 290° (WNW) 20:14:27 437.568
AIST 2 23 Nov 20:17:08 20:20:16 21° 110° (ESE) 20:23:27 435.215
DX 1 23 Nov 20:19:13 20:20:47 12° 67° (ENE) 20:22:21 434.975-435.025
AIST 1 23 Nov 20:23:46 20:28:03 56° 277° (W) 20:32:23
AAUSAT CUBESAT 2 23 Nov 20:27:36 20:31:17 32° 74° (ENE) 20:35:00 437.432
CANX-2 23 Nov 20:29:21 20:33:31 64° 76° (ENE) 20:37:41 2200.000
HO-68 23 Nov 20:30:54 20:38:04 80° 74° (ENE) 20:45:17 435.675
GONETS M04 23 Nov 20:32:18 20:41:04 71° 268° (W) 20:49:44
COMPASS 1 23 Nov 20:40:40 20:44:44 56° 76° (ENE) 20:48:49 437.405
DOVE 4 23 Nov 20:46:25 20:51:01 47° 75° (ENE) 20:55:21 437.250
DELFI C3 23 Nov 20:46:27 20:49:31 21° 72° (ENE) 20:52:35 145.870
AISAT 23 Nov 21:02:45 21:03:53 11° 67° (ENE) 21:05:00 437.250
PCSat 23 Nov 21:03:20 21:07:48 26° 302° (WNW) 21:12:18 145.827
CUTE 1.7 & AOD 2 23 Nov 21:04:30 21:08:33 47° 260° (W) 21:12:37 437.475
PHONESAT 2.4 23 Nov 21:14:09 21:17:48 54° 27° (NNE) 21:21:25 2401.200-2431.200
GOMX 1 23 Nov 21:16:23 21:21:20 56° 259° (W) 21:25:57 467.674
BEESAT 3 23 Nov 21:18:40 21:22:07 26° 303° (WNW) 21:25:37 437.485
FUNcube-1 23 Nov 21:19:00 21:22:31 26° 73° (ENE) 21:25:59 145.935
UKube-1 23 Nov 21:19:13 21:23:31 65° 76° (ENE) 21:27:51 .
BEESAT 2 23 Nov 21:32:22 21:35:31 21° 304° (NW) 21:38:43 435.950
CUBEBUG 2 23 Nov 21:32:23 21:36:39 56° 76° (ENE) 21:40:48 437.445
Oscar 11 23 Nov 21:32:31 21:36:48 77° 258° (WSW) 21:41:07 145.826/435.025
BRITE-PL 23 Nov 21:32:40 21:37:08 28° 262° (W) 21:41:22 437.365/2234.400
VERMONT LUNAR 23 Nov 21:35:44 21:39:21 68° 213° (SSW) 21:42:55 437.305
UWE-3 23 Nov 21:37:57 21:42:11 55° 76° (ENE) 21:46:18 435.000/436.395/437.385
CINEMA 3 23 Nov 21:41:09 21:45:40 65° 259° (W) 21:50:00 145.822/145.860
SEEDS 23 Nov 21:41:59 21:44:59 19° 264° (W) 21:47:59 437.485
DX 1 23 Nov 21:52:21 21:56:34 46° 260° (W) 22:00:47 434.975-435.025
AIST 2 23 Nov 21:55:12 21:58:42 25° 303° (WNW) 22:02:16 435.215
ANTELSAT 23 Nov 21:57:50 22:00:19 15° 95° (E) 22:02:49 437.575/2403.000
ESTCUBE 1 23 Nov 22:01:54 22:05:05 19° 70° (ENE) 22:08:17 437.505/2401.250
AAUSAT CUBESAT 2 23 Nov 22:04:52 22:07:00 14° 266° (W) 22:09:09 437.432
VELOX 1 23 Nov 22:10:49 22:15:17 75° 77° (ENE) 22:19:46 145.980
POPSAT HIP 1 23 Nov 22:12:16 22:14:10 13° 94° (E) 22:16:04 437.405
ZACube-1 23 Nov 22:18:44 22:22:54 51° 260° (W) 22:27:00 437.345
HUMSAT D 23 Nov 22:20:35 22:24:46 87° 259° (W) 22:28:54 437.325/437.525
DELFI C3 23 Nov 22:21:37 22:24:40 21° 264° (W) 22:27:45 145.870
HO-68 23 Nov 22:23:04 22:26:16 13° 266° (W) 22:29:30 435.675
50 SAT 23 Nov 22:26:08 22:30:11 90° 257° (WSW) 22:34:14 437.505
DOVE 4 23 Nov 22:26:58 22:28:51 12° 265° (W) 22:30:41 437.250
ISS 23 Nov 22:32:13 22:33:39 12° 125° (SE) 22:35:05 145.825
AISAT 23 Nov 22:35:38 22:40:01 52° 260° (W) 22:44:24 437.250
JUGNU 23 Nov 22:36:40 22:39:10 13° 161° (SSE) 22:41:40 437.505
POLYITAN 1 23 Nov 22:42:33 22:46:22 33° 98° (E) 22:50:10 437.675
QB50P2 23 Nov 22:45:32 22:49:26 36° 99° (E) 22:53:18 145.880/145.840
TIGRISAT 23 Nov 22:52:03 22:56:28 68° 101° (ESE) 23:00:58 435.000
DUCHIFAT 1 23 Nov 22:53:07 22:57:08 44° 100° (E) 23:01:09 145.980
PHONESAT 2.4 23 Nov 22:53:32 22:56:24 21° 219° (SW) 22:59:15 2401.200-2431.200
TISAT 1 23 Nov 22:55:26 22:58:10 17° 70° (ENE) 23:00:54 437.305
FUNcube-1 23 Nov 22:55:51 22:58:48 18° 264° (W) 23:01:43 145.935
CUBEBUG 1 23 Nov 22:57:41 23:02:08 87° 77° (ENE) 23:06:36 437.445
SPROUT 23 Nov 22:57:46 23:00:17 15° 70° (ENE) 23:02:47 437.525
UNISAT 6 23 Nov 23:04:16 23:08:44 83° 283° (WNW) 23:13:18 437.425
NANOSAT C BR1 23 Nov 23:11:57 23:16:10 81° 102° (ESE) 23:20:23 145.865
QB50P1 23 Nov 23:21:31 23:25:43 76° 283° (WNW) 23:29:55 145.935-145.965
ANTELSAT 23 Nov 23:33:03 23:37:09 37° 286° (WNW) 23:41:19 437.575/2403.000
ESTCUBE 1 23 Nov 23:37:45 23:41:42 29° 262° (W) 23:45:41 437.505/2401.250
BUGSAT 1 23 Nov 23:45:18 23:49:11 44° 285° (WNW) 23:53:00 437.445
POPSAT HIP 1 23 Nov 23:46:17 23:50:08 36° 286° (WNW) 23:53:59 437.405
CUSAT 1 23 Nov 23:47:04 23:51:20 28° 82° (E) 23:56:40 437.405
RS-15 23 Nov 23:54:51 00:01:54 18° 39° (NE) 00:09:03 29.354- 29.394
DANDE 24 Nov 00:02:02 00:06:19 32° 83° (E) 00:11:50 436.750
ISS 24 Nov 00:06:55 00:10:00 37° 317° (NW) 00:13:04 145.825
ITUPSAT 1 24 Nov 00:10:59 00:14:07 18° 69° (ENE) 00:17:17 437.325
POLYITAN 1 24 Nov 00:19:38 00:22:00 15° 291° (WNW) 00:24:21 437.675
SWISSCUBE 24 Nov 00:21:59 00:25:56 26° 71° (ENE) 00:29:53 437.505
JUGNU 24 Nov 00:22:54 00:27:38 25° 169° (S) 00:32:24 437.505
QB50P2 24 Nov 00:22:54 00:24:59 14° 291° (WNW) 00:27:05 145.880/145.840
TISAT 1 24 Nov 00:29:59 00:33:44 29° 262° (W) 00:37:29 437.305
SRMSAT 24 Nov 00:30:05 00:33:36 16° 163° (SSE) 00:37:06 437.500
DUCHIFAT 1 24 Nov 00:31:26 00:32:34 11° 292° (WNW) 00:33:42 145.980
SPROUT 24 Nov 00:32:08 00:36:03 33° 262° (W) 00:39:58 437.525
AUBIESAT-1 24 Nov 00:42:35 00:46:23 82° 73° (ENE) 00:50:35 437.475
M-CUBED/EXP-1 PRIME 24 Nov 00:46:09 00:49:56 80° 254° (WSW) 00:54:07 437.505
BEESAT 24 Nov 00:52:47 00:57:25 54° 75° (ENE) 01:02:06 436.000
STARS 24 Nov 01:24:19 01:26:18 13° 68° (ENE) 01:28:18 437.465
CUSAT 1 24 Nov 01:30:02 01:34:19 27° 264° (W) 01:39:40 437.405
YUBILEINY 24 Nov 01:41:30 01:48:04 24° 84° (E) 01:54:36 435.215
Oscar 19 24 Nov 01:44:27 01:49:37 71° 102° (ESE) 01:54:46 437.125/150
DANDE 24 Nov 01:45:53 01:49:42 22° 264° (W) 01:54:23 436.750
ITUPSAT 1 24 Nov 01:47:16 01:51:40 36° 261° (W) 01:56:07 437.325
MaSat-1 24 Nov 01:49:01 01:51:21 88° 247° (WSW) 01:53:50 437.345
KKS-1 24 Nov 01:57:24 02:01:44 52° 75° (ENE) 02:06:03 437.445
SWISSCUBE 24 Nov 01:59:49 02:03:39 24° 263° (W) 02:07:31 437.505
RS-15 24 Nov 02:05:02 02:16:24 74° 62° (ENE) 02:28:16 29.354- 29.394
JUGNU 24 Nov 02:11:00 02:16:13 32° 179° (S) 02:21:27 437.505
SRMSAT 24 Nov 02:17:16 02:22:16 28° 172° (S) 02:27:16 437.500
ITAMSAT 1 24 Nov 02:32:22 02:37:33 77° 103° (ESE) 02:42:42 435.822/435.867
BEESAT 24 Nov 02:34:12 02:35:29 11° 267° (W) 02:36:47 436.000
Gurwin Techsat 1B 24 Nov 02:51:06 02:56:23 65° 101° (ESE) 03:01:37 435.225
STARS 24 Nov 02:58:12 03:02:23 41° 260° (W) 03:06:33 437.465
HORYU 2 24 Nov 03:10:38 03:14:54 42° 100° (E) 03:19:09 437.375
Oscar 19 24 Nov 03:27:25 03:28:17 10° 295° (WNW) 03:29:10 437.125/150
AO-7 24 Nov 03:33:16 03:40:08 28° 98° (E) 03:46:57 29.400- 29.500
YUBILEINY 24 Nov 03:35:34 03:44:10 57° 279° (W) 03:52:47 435.215
JUGNU 24 Nov 03:59:53 04:04:49 27° 189° (S) 04:09:45 437.505
SO-50 24 Nov 04:00:26 04:04:52 87° 116° (ESE) 04:09:28 436.795
SRMSAT 24 Nov 04:05:46 04:11:01 32° 182° (S) 04:16:16 437.500
RS-15 24 Nov 04:19:24 04:27:45 24° 257° (WSW) 04:36:24 29.354- 29.394
MOZHAYETS 4 24 Nov 04:22:26 04:26:49 48° 75° (ENE) 04:31:14
Gurwin Techsat 1B 24 Nov 04:33:48 04:35:42 12° 295° (WNW) 04:37:36 435.225
PRISM 24 Nov 04:48:08 04:50:24 14° 69° (ENE) 04:52:39 437.425
HORYU 2 24 Nov 04:48:59 04:51:10 14° 292° (WNW) 04:53:21 437.375
O/OREOS (USA 219) 24 Nov 05:22:37 05:25:45 19° 101° (E) 05:28:52 437.305
AO-7 24 Nov 05:25:01 05:33:01 52° 292° (WNW) 05:41:01 29.400- 29.500
JAS-2 24 Nov 05:33:04 05:40:03 77° 102° (ESE) 05:46:08 435.910
STRAND 1 24 Nov 05:37:31 05:41:23 22° 69° (ENE) 05:45:15 437.568
CUTE-I 24 Nov 05:37:37 05:41:12 18° 95° (E) 05:44:45 437.470
BEESAT 3 24 Nov 05:43:54 05:47:35 29° 58° (ENE) 05:51:13 437.485
JUGNU 24 Nov 05:50:02 05:53:19 15° 198° (SSW) 05:56:36 437.505
SRMSAT 24 Nov 05:55:02 05:59:45 24° 192° (SSW) 06:04:27 437.500
PCSat 24 Nov 05:56:08 06:01:33 72° 65° (ENE) 06:06:55 145.827
BEESAT 2 24 Nov 05:57:22 06:01:17 38° 59° (ENE) 06:05:09 435.950
CUBESAT XI-V 24 Nov 05:57:50 06:02:04 34° 73° (ENE) 06:06:19 437.345
MOZHAYETS 4 24 Nov 06:02:47 06:04:13 11° 267° (W) 06:05:39
PRISM 24 Nov 06:21:49 06:25:36 33° 261° (W) 06:29:26 437.425
AIST 2 24 Nov 06:22:21 06:26:17 34° 59° (ENE) 06:30:09 435.215
Cubesat XI-IV 24 Nov 06:34:03 06:39:23 76° 102° (ESE) 06:44:40 437.490
AIST 1 24 Nov 06:38:20 06:41:31 20° 78° (ENE) 06:44:41
ISS 24 Nov 06:41:01 06:42:45 14° 36° (NE) 06:44:29 145.825
O/OREOS (USA 219) 24 Nov 07:01:02 07:04:53 28° 293° (WNW) 07:08:44 437.305
STRAND 1 24 Nov 07:15:42 07:20:18 33° 262° (W) 07:24:55 437.568
CUTE-I 24 Nov 07:16:23 07:21:20 40° 288° (WNW) 07:26:14 437.470
JAS-2 24 Nov 07:20:39 07:23:59 14° 299° (WNW) 07:27:10 435.910
BEESAT 3 24 Nov 07:22:50 07:25:32 17° 251° (WSW) 07:28:12 437.485
GONETS M04 24 Nov 07:30:47 07:37:45 27° 85° (E) 07:44:43
CUBESAT XI-V 24 Nov 07:36:26 07:39:31 17° 265° (W) 07:42:38 437.345
BEESAT 2 24 Nov 07:37:15 07:39:11 13° 252° (WSW) 07:41:06 435.950
PCSat 24 Nov 07:43:54 07:44:15 10° 258° (WSW) 07:44:37 145.827
SRMSAT 24 Nov 07:46:12 07:48:23 12° 200° (SSW) 07:50:34 437.500
AIST 2 24 Nov 08:02:06 08:04:34 15° 252° (WSW) 08:07:00 435.215
HO-68 24 Nov 08:06:54 08:11:59 21° 96° (E) 08:17:01 435.675
AIST 1 24 Nov 08:15:36 08:19:03 23° 271° (W) 08:22:28
ISS 24 Nov 08:16:23 08:19:33 45° 230° (SW) 08:22:43 145.825
Cubesat XI-IV 24 Nov 08:18:20 08:18:45 10° 296° (WNW) 08:19:10 437.490
CANX-2 24 Nov 08:22:02 08:25:00 18° 96° (E) 08:27:58 2200.000
COMPASS 1 24 Nov 08:32:10 08:34:40 15° 95° (E) 08:37:09 437.405
DOVE 4 24 Nov 08:52:36 08:55:30 18° 96° (E) 08:58:27 437.250
CUTE 1.7 & AOD 2 24 Nov 08:55:59 09:00:05 44° 99° (E) 09:04:12 437.475
UKube-1 24 Nov 09:14:24 09:17:20 18° 96° (E) 09:20:15 .
GOMX 1 24 Nov 09:24:23 09:28:31 66° 101° (E) 09:32:48 467.674
GONETS M04 24 Nov 09:25:33 09:33:59 51° 280° (W) 09:42:31
Oscar 11 24 Nov 09:26:24 09:30:14 30° 98° (E) 09:34:03 145.826/435.025
CUBEBUG 2 24 Nov 09:30:32 09:33:32 18° 96° (E) 09:36:35 437.445
SEEDS 24 Nov 09:31:27 09:35:42 73° 283° (WNW) 09:39:58 437.485
POLYITAN 1 24 Nov 09:32:17 09:34:07 13° 69° (ENE) 09:35:57 437.675
QB50P2 24 Nov 09:34:48 09:36:55 14° 69° (ENE) 09:39:02 145.880/145.840
UWE-3 24 Nov 09:35:01 09:37:55 18° 96° (E) 09:40:52 435.000/436.395/437.385
DUCHIFAT 1 24 Nov 09:41:34 09:44:13 16° 70° (ENE) 09:46:52 145.980
CINEMA 3 24 Nov 09:42:11 09:46:14 44° 100° (E) 09:50:25 145.822/145.860
BRITE-PL 24 Nov 09:43:12 09:47:10 46° 285° (WNW) 09:51:13 437.365/2234.400
TIGRISAT 24 Nov 09:45:57 09:49:34 27° 73° (ENE) 09:53:10 435.000
DX 1 24 Nov 09:46:52 09:51:04 47° 100° (E) 09:55:13 434.975-435.025
AAUSAT CUBESAT 2 24 Nov 09:52:24 09:56:31 54° 284° (WNW) 10:00:39 437.432
HO-68 24 Nov 09:52:56 09:59:55 57° 289° (WNW) 10:06:51 435.675
CANX-2 24 Nov 09:57:16 10:00:52 27° 287° (WNW) 10:04:29 2200.000
UNISAT 6 24 Nov 09:58:04 10:02:04 39° 74° (ENE) 10:06:03 437.425
NANOSAT C BR1 24 Nov 09:59:34 10:03:11 27° 72° (ENE) 10:06:47 145.865
COMPASS 1 24 Nov 10:06:39 10:10:23 31° 287° (WNW) 10:14:08 437.405
DELFI C3 24 Nov 10:07:23 10:11:32 88° 101° (E) 10:15:40 145.870
VELOX 1 24 Nov 10:08:40 10:12:10 23° 97° (E) 10:15:39 145.980
QB50P1 24 Nov 10:08:52 10:12:46 36° 74° (ENE) 10:16:40 145.935-145.965
HUMSAT D 24 Nov 10:11:56 10:15:20 24° 97° (E) 10:18:45 437.325/437.525
ZACube-1 24 Nov 10:13:29 10:17:34 46° 100° (E) 10:21:44 437.345
50 SAT 24 Nov 10:14:04 10:17:06 20° 96° (E) 10:20:07 437.505
